DW3762 Weather Reports


Display with metric or nautical units.
time (UTC)temp
F
wind
direction
speed
MPH
gust
MPH
rain 1hr
in
rain 24hr
in
rain mn
in
humidity
%
barometer
mb
20260505124552 54 250 0.0 3.0 0.00 0.00 0.00 85 1014.5
20260505123047 55 204 0.0 4.0 0.00 0.00 0.00 85 1014.5
20260505121546 55 287 1.0 3.0 0.00 0.00 0.00 85 1014.4
20260505120049 54 221 2.0 5.0 0.00 0.00 0.00 85 1014.4
20260505114547 54 244 1.0 3.0 0.00 0.00 0.00 85 1014.4
20260505113044 54 237 2.0 4.0 0.00 0.00 0.00 85 1014.3
20260505111544 55 206 0.0 2.0 0.00 0.00 0.00 85 1014.4
20260505101544 54 84 1.0 4.0 0.00 0.00 0.00 85 1013.7
20260505100038 55 108 0.0 2.0 0.00 0.00 0.00 84 1013.9
20260505094535 55 138 0.0 3.0 0.00 0.00 0.00 83 1013.8
20260505093034 55 125 1.0 4.0 0.00 0.00 0.00 83 1013.7
20260505091535 56 215 1.0 5.0 0.00 0.00 0.00 82 1013.6
20260505090040 56 231 1.0 3.0 0.00 0.00 0.00 81 1013.4
20260505084527 56 244 0.0 7.0 0.00 0.00 0.00 80 1013.4
20260505083024 57 268 1.0 6.0 0.00 0.00 0.00 79 1013.4
20260505081522 58 250 2.0 5.0 0.00 0.00 0.00 79 1013.2
20260505080037 58 219 1.0 6.0 0.00 0.00 0.00 78 1013.2
20260505074523 59 233 1.0 4.0 0.00 0.00 0.00 78 1013.0
20260505073027 59 253 2.0 5.0 0.00 0.00 0.00 78 1012.8
20260505071511 59 235 2.0 6.0 0.00 0.00 0.00 77 1012.5
20260505070009 60 244 0.0 2.0 0.00 0.00 0.00 77 1012.5
20260505064508 60 247 1.0 3.0 0.00 0.00 0.00 75 1012.3
20260505063008 61 196 1.0 3.0 0.00 0.00 0.00 74 1012.1
20260505061507 62 158 0.0 6.0 0.00 0.00 0.00 74 1011.9
20260505060009 63 246 0.0 3.0 0.00 0.00 0.00 73 1011.7
20260505054506 64 316 1.0 4.0 0.00 0.00 0.00 72 1011.7
20260505053006 65 285 1.0 6.0 0.00 0.00 0.00 70 1011.4
20260505051509 65 278 2.0 5.0 0.00 0.00 0.00 69 1011.4
20260505041503 68 234 2.0 6.0 0.00 0.00 0.00 70 1010.7
20260505040003 69 242 2.0 7.0 0.00 0.00 0.00 69 1010.4
20260505034502 69 267 2.0 7.0 0.00 0.00 0.00 68 1010.1
20260505033002 70 252 2.0 7.0 0.00 0.00 0.00 67 1009.8
20260505031502 71 168 0.0 3.0 0.00 0.00 0.00 67 1009.6
20260505030002 72 238 2.0 8.0 0.00 0.00 0.00 65 1009.4
20260505024601 73 258 1.0 7.0 0.00 0.00 0.00 63 1009.4
20260505023100 73 254 3.0 8.0 0.00 0.00 0.00 62 1009.3
20260505021600 74 144 1.0 9.0 0.00 0.00 0.00 61 1009.3
20260505020103 74 222 2.0 10.0 0.00 0.00 0.00 61 1009.3
20260505014606 74 108 2.0 9.0 0.00 0.00 0.00 61 1009.3
20260505013058 75 254 2.0 12.0 0.00 0.00 0.00 60 1009.4
20260505011558 75 122 3.0 9.0 0.00 0.00 0.00 59 1009.5
20260505010058 76 146 4.0 10.0 0.00 0.00 0.00 59 1009.6
20260505004558 76 227 3.0 9.0 0.00 0.00 0.00 57 1009.7
20260505003056 76 48 2.0 11.0 0.00 0.00 0.00 57 1009.7
20260505001556 77 219 4.0 10.0 0.00 0.00 0.00 55 1009.8
20260505000057 78 265 2.0 10.0 0.00 0.00 0.00 53 1010.0
20260504234555 78 218 3.0 6.0 0.00 0.00 0.00 53 1009.9
20260504233053 78 169 3.0 11.0 0.00 0.00 0.00 52 1010.0
20260504231557 79 229 2.0 9.0 0.00 0.00 0.00 51 1010.1
20260504230053 78 214 3.0 7.0 0.00 0.00 0.00 52 1010.3
20260504224549 77 152 2.0 11.0 0.00 0.00 0.00 53 1010.5
20260504223047 77 212 2.0 8.0 0.00 0.00 0.00 52 1010.6
20260504221544 76 280 4.0 8.0 0.00 0.00 0.00 53 1010.9
20260504220042 75 251 3.0 9.0 0.00 0.00 0.00 53 1011.0
20260504214537 74 121 4.0 10.0 0.00 0.00 0.00 59 1011.2
20260504213033 73 196 4.0 11.0 0.00 0.00 0.00 56 1011.4
20260504211534 73 223 4.0 10.0 0.00 0.00 0.00 57 1011.6
20260504210039 71 119 3.0 9.0 0.00 0.00 0.00 63 1011.8
20260504204537 70 239 3.0 9.0 0.00 0.00 0.00 60 1012.1
20260504203030 69 250 4.0 11.0 0.00 0.00 0.00 61 1012.2
20260504201528 68 250 1.0 11.0 0.00 0.00 0.00 65 1012.3
20260504200028 67 292 2.0 10.0 0.00 0.00 0.00 64 1012.5
20260504194527 66 294 4.0 9.0 0.00 0.00 0.00 67 1012.6
20260504193027 65 230 2.0 7.0 0.00 0.00 0.00 69 1012.7
20260504191526 64 215 4.0 10.0 0.00 0.00 0.00 69 1012.8
20260504190026 63 100 4.0 9.0 0.00 0.00 0.00 73 1012.8
20260504184526 62 271 4.0 13.0 0.00 0.00 0.00 73 1013.0
20260504183023 61 231 3.0 9.0 0.00 0.00 0.00 75 1013.0
20260504181523 60 94 3.0 11.0 0.00 0.00 0.00 77 1013.0
20260504180023 59 254 3.0 10.0 0.00 0.00 0.00 79 1013.0
20260504174522 59 254 2.0 9.0 0.00 0.00 0.00 79 1013.0
20260504173020 58 219 3.0 11.0 0.00 0.00 0.00 80 1013.0
20260504171520 58 226 4.0 12.0 0.00 0.00 0.00 81 1012.9